Shelbyville, IN

12:42 AM EST on December 05, 2016 (GMT -0500)
Shelbyville Municipal

Weather History for KGEZ - May, 2014

Change the Weather History Date:

Saturday, May 24, 2014

  Actual Average Record
Temperature  
Mean Temperature 66 °F 66 °F  
Max Temperature 78 °F 76 °F 88 °F (2007)
Min Temperature 53 °F 55 °F 46 °F (2003)
Degree Days  
Heating Degree Days 0 3  
Month to date heating degree days 103 121  
Since 1 July heating degree days 5702 5381  
Cooling Degree Days 1 3  
Month to date cooling degree days 79 43  
Year to date cooling degree days 89 56  
Growing Degree Days 16 (Base 50)    
Moisture  
Dew Point 50 °F    
Average Humidity 60    
Maximum Humidity 83    
Minimum Humidity 36    
Precipitation  
Precipitation 0.00 in 0.16 in 1.07 in (2001)
Month to date precipitation 4.13 4.29  
Year to date precipitation 15.47 16.79  
Sea Level Pressure  
Sea Level Pressure 30.16 in    
Wind  
Wind Speed 4 mph (SE)    
Max Wind Speed 9 mph    
Max Gust Speed 12 mph    
Visibility 10 miles    
Events      
T = Trace of Precipitation, MM = Missing Value Source: NWS Daily Summary

Daily Weather History Graph

Daily Weather History Graph

Search for Another Location

Airport or City:

Trip Planner

Search our weather history database for the weather conditions in past years. The results will help you decide how hot, cold, wet, or windy it might be!

Date:

Astronomy

May. 24, 2014 Rise Set
Actual Time 6:21 AM EDT 8:58 PM EDT
Civil Twilight 5:50 AM EDT 9:29 PM EDT
Nautical Twilight 5:11 AM EDT 10:08 PM EDT
Astronomical Twilight 4:28 AM EDT 10:52 PM EDT
Moon 3:49 AM EDT (5/24) 4:56 PM EDT (5/24)
Length of Visible Light 15h 39m
Length of Day
14h 36m
Waning Crescent, 18% of the Moon is Illuminated
May 24
Waning Crescent
May 28
New
Jun 5
First Quarter
Jun 13
Full
Jun 19
Last Quarter

Hourly Weather History & Observations

Time (EDT) Temp. Dew Point Humidity Pressure Visibility Wind Dir Wind Speed Gust Speed Precip Events Conditions
1:53 AM 57.9 °F 50.0 °F 75% 30.15 in 10.0 mi North 5.8 mph - N/A   Clear
2:53 AM 57.9 °F 48.0 °F 70% 30.15 in 10.0 mi North 3.5 mph - N/A   Clear
3:53 AM 57.0 °F 48.0 °F 72% 30.15 in 10.0 mi NNE 5.8 mph - N/A   Clear
4:53 AM 55.9 °F 48.0 °F 75% 30.16 in 10.0 mi ENE 4.6 mph - N/A   Clear
5:53 AM 55.0 °F 48.0 °F 77% 30.16 in 10.0 mi NNE 3.5 mph - N/A   Clear
6:53 AM 54.0 °F 48.0 °F 80% 30.17 in 10.0 mi NE 4.6 mph - N/A   Clear
7:53 AM 59.0 °F 48.9 °F 69% 30.19 in 10.0 mi ENE 5.8 mph - N/A   Clear
8:53 AM 64.0 °F 50.0 °F 60% 30.21 in 10.0 mi SSE 3.5 mph - N/A   Clear
9:53 AM 66.9 °F 52.0 °F 59% 30.22 in 10.0 mi South 4.6 mph - N/A   Clear
10:53 AM 71.1 °F 50.0 °F 47% 30.20 in 10.0 mi SSE 6.9 mph - N/A   Clear
11:53 AM 73.0 °F 48.9 °F 42% 30.20 in 10.0 mi South 3.5 mph - N/A   Clear
12:53 PM 73.0 °F 51.1 °F 46% 30.19 in 10.0 mi Variable 3.5 mph - N/A   Clear
1:53 PM 75.0 °F 51.1 °F 43% 30.17 in 10.0 mi SSW 6.9 mph - N/A   Clear
2:53 PM 75.9 °F 50.0 °F 40% 30.16 in 10.0 mi SE 4.6 mph - N/A   Clear
3:53 PM 75.9 °F 48.0 °F 37% 30.14 in 10.0 mi Calm Calm - N/A   Clear
4:53 PM 77.0 °F 48.0 °F 36% 30.13 in 10.0 mi Calm Calm - N/A   Clear
5:53 PM 75.9 °F 48.0 °F 37% 30.12 in 10.0 mi WSW 4.6 mph - N/A   Clear
7:53 PM 73.9 °F 52.0 °F 46% 30.11 in 10.0 mi West 3.5 mph - N/A   Clear
8:53 PM 72.0 °F 52.0 °F 49% 30.12 in 10.0 mi Calm Calm - N/A   Clear
9:53 PM 66.9 °F 55.0 °F 66% 30.13 in 10.0 mi SSE 3.5 mph - N/A   Clear
10:53 PM 66.0 °F 54.0 °F 65% 30.14 in 10.0 mi SSW 3.5 mph - N/A   Clear
11:53 PM 63.0 °F 54.0 °F 72% 30.13 in 10.0 mi Calm Calm - N/A   Clear